Location: Canet
(43.3261°N, 5.3723°E)
Time: 19:32:08
(UTC+00:00)

Aureole 3 Rocket - Pass Details

Date: 24 January 2021
Orbit: 399 x 1740 km, 82.5° (Epoch: 08 March)

Event Time Altitude Azimuth Distance (km) Brightness Sun altitude
Rises 17:39:34 0° 7° (N) 2,329 5.8 -11.0°
Reaches altitude 10° 17:41:50 10° 26° (NNE) 1,504 4.7 -11.4°
Maximum altitude 17:44:16 20° 77° (ENE) 1,103 3.7 -11.8°
Drops below altitude 10° 17:46:59 10° 127° (SE) 1,708 5.0 -12.3°
Sets 17:49:46 0° 144° (SE) 2,770 6.2 -12.8°
